Wetterdaten: aktuell Montag, 19.08.2019 03:50
Datum Zeit Temp. A. Feuchte A. Luftdruck Regen Wind Richtung Richtung Sonnenschein T Regen Solar Taupunkt Windchill Windben Empfang
19.08.2019 03:50 16,5 C 93 % 1014,7 hPa 0,0 l/m 0,0 km/h (0 Bft) W-SW 237 0 min 0 min 3 W/m 15,4 C 16,5 C 0,0 km/h (0 Bft) 100 %
19.08.2019 03:49 16,6 C 93 % 1014,8 hPa 0,0 l/m 2,7 km/h (1 Bft) W-SW 237 0 min 0 min 3 W/m 15,5 C 16,6 C 4,8 km/h (1 Bft) 100 %
19.08.2019 03:48 16,5 C 93 % 1014,8 hPa 0,0 l/m 2,5 km/h (1 Bft) W-SW 237 0 min 0 min 3 W/m 15,4 C 16,5 C 3,2 km/h (1 Bft) 96 %
19.08.2019 03:47 16,6 C 93 % 1014,8 hPa 0,0 l/m 1,3 km/h (1 Bft) W-SW 237 0 min 0 min 3 W/m 15,5 C 16,6 C 4,8 km/h (1 Bft) 100 %
19.08.2019 03:46 16,5 C 93 % 1014,8 hPa 0,0 l/m 4,2 km/h (1 Bft) W-SW 237 0 min 0 min 3 W/m 15,4 C 16,5 C 8,0 km/h (2 Bft) 96 %
19.08.2019 03:45 16,5 C 93 % 1014,9 hPa 0,0 l/m 4,7 km/h (1 Bft) W-SW 251 0 min 0 min 3 W/m 15,4 C 16,5 C 9,7 km/h (2 Bft) 96 %
19.08.2019 03:44 16,5 C 93 % 1014,8 hPa 0,0 l/m 6,1 km/h (2 Bft) W-SW 248 0 min 0 min 3 W/m 15,4 C 16,5 C 8,0 km/h (2 Bft) 100 %
19.08.2019 03:43 16,5 C 93 % 1014,8 hPa 0,0 l/m 5,1 km/h (1 Bft) SW 218 0 min 0 min 3 W/m 15,4 C 16,5 C 6,4 km/h (2 Bft) 96 %
19.08.2019 03:42 16,5 C 93 % 1014,8 hPa 0,0 l/m 4,3 km/h (1 Bft) W 260 0 min 0 min 3 W/m 15,4 C 16,5 C 6,4 km/h (2 Bft) 100 %
19.08.2019 03:41 16,5 C 93 % 1014,8 hPa 0,0 l/m 6,4 km/h (2 Bft) SW 216 0 min 0 min 3 W/m 15,4 C 16,5 C 9,7 km/h (2 Bft) 96 %
19.08.2019 03:40 16,5 C 93 % 1014,8 hPa 0,0 l/m 5,7 km/h (1 Bft) SW 218 0 min 0 min 3 W/m 15,4 C 16,5 C 9,7 km/h (2 Bft) 100 %
19.08.2019 03:39 16,5 C 93 % 1014,8 hPa 0,0 l/m 7,1 km/h (2 Bft) W-SW 253 0 min 0 min 3 W/m 15,4 C 16,1 C 9,7 km/h (2 Bft) 96 %
19.08.2019 03:38 16,5 C 93 % 1014,4 hPa 0,0 l/m 7,4 km/h (2 Bft) W-SW 249 0 min 0 min 3 W/m 15,4 C 16,0 C 9,7 km/h (2 Bft) 100 %
19.08.2019 03:37 16,5 C 93 % 1014,3 hPa 0,0 l/m 5,8 km/h (2 Bft) W-SW 242 0 min 0 min 3 W/m 15,4 C 16,5 C 11,3 km/h (2 Bft) 96 %
19.08.2019 03:36 16,5 C 93 % 1014,2 hPa 0,0 l/m 5,5 km/h (1 Bft) SW 226 0 min 0 min 3 W/m 15,4 C 16,5 C 8,0 km/h (2 Bft) 96 %
19.08.2019 03:35 16,5 C 93 % 1013,9 hPa 0,0 l/m 2,8 km/h (1 Bft) W-SW 258 0 min 0 min 3 W/m 15,4 C 16,5 C 4,8 km/h (1 Bft) 100 %
19.08.2019 03:34 16,5 C 93 % 1013,6 hPa 0,0 l/m 1,1 km/h (1 Bft) W 264 0 min 0 min 3 W/m 15,4 C 16,5 C 3,2 km/h (1 Bft) 96 %
19.08.2019 03:33 16,5 C 93 % 1013,5 hPa 0,0 l/m 0,9 km/h (0 Bft) O-NO 59 0 min 0 min 3 W/m 15,4 C 16,5 C 3,2 km/h (1 Bft) 100 %
19.08.2019 03:32 16,5 C 93 % 1013,4 hPa 0,0 l/m 2,2 km/h (1 Bft) O-NO 59 0 min 0 min 3 W/m 15,4 C 16,5 C 3,2 km/h (1 Bft) 96 %
19.08.2019 03:31 16,5 C 93 % 1013,4 hPa 0,0 l/m 4,3 km/h (1 Bft) O-NO 58 0 min 0 min 3 W/m 15,4 C 16,5 C 4,8 km/h (1 Bft) 100 %
19.08.2019 03:30 16,6 C 93 % 1013,6 hPa 0,0 l/m 2,9 km/h (1 Bft) O 91 0 min 0 min 3 W/m 15,5 C 16,6 C 4,8 km/h (1 Bft) 96 %
19.08.2019 03:29 16,6 C 93 % 1013,7 hPa 0,0 l/m 2,7 km/h (1 Bft) O 91 0 min 0 min 3 W/m 15,5 C 16,6 C 3,2 km/h (1 Bft) 100 %
19.08.2019 03:28 16,6 C 93 % 1013,7 hPa 0,0 l/m 2,6 km/h (1 Bft) O 91 0 min 0 min 3 W/m 15,5 C 16,6 C 3,2 km/h (1 Bft) 100 %
19.08.2019 03:27 16,6 C 93 % 1013,8 hPa 0,0 l/m 2,9 km/h (1 Bft) O 91 0 min 0 min 3 W/m 15,5 C 16,6 C 3,2 km/h (1 Bft) 100 %
19.08.2019 03:26 16,6 C 93 % 1014,0 hPa 0,0 l/m 2,5 km/h (1 Bft) O 91 0 min 0 min 3 W/m 15,5 C 16,6 C 3,2 km/h (1 Bft) 100 %
19.08.2019 03:25 16,6 C 93 % 1014,1 hPa 0,0 l/m 1,5 km/h (1 Bft) O 91 0 min 0 min 3 W/m 15,5 C 16,6 C 3,2 km/h (1 Bft) 100 %
19.08.2019 03:24 16,6 C 93 % 1014,2 hPa 0,0 l/m 2,4 km/h (1 Bft) O 91 0 min 0 min 3 W/m 15,5 C 16,6 C 3,2 km/h (1 Bft) 100 %
19.08.2019 03:23 16,6 C 93 % 1014,2 hPa 0,0 l/m 2,5 km/h (1 Bft) O 91 0 min 0 min 3 W/m 15,5 C 16,6 C 3,2 km/h (1 Bft) 100 %
19.08.2019 03:22 16,6 C 93 % 1014,2 hPa 0,3 l/m 1,9 km/h (1 Bft) O 91 0 min 1 min 3 W/m 15,5 C 16,6 C 3,2 km/h (1 Bft) 100 %
19.08.2019 03:21 16,6 C 93 % 1014,1 hPa 0,0 l/m 3,8 km/h (1 Bft) O 91 0 min 0 min 3 W/m 15,5 C 16,6 C 4,8 km/h (1 Bft) 100 %
19.08.2019 03:20 16,6 C 93 % 1014,1 hPa 0,0 l/m 3,8 km/h (1 Bft) O 90 0 min 0 min 3 W/m 15,5 C 16,6 C 4,8 km/h (1 Bft) 100 %
19.08.2019 03:19 16,6 C 92 % 1014,1 hPa 0,0 l/m 2,9 km/h (1 Bft) O 95 0 min 0 min 3 W/m 15,3 C 16,6 C 4,8 km/h (1 Bft) 100 %
19.08.2019 03:18 16,6 C 92 % 1014,1 hPa 0,0 l/m 2,8 km/h (1 Bft) O 95 0 min 0 min 3 W/m 15,3 C 16,6 C 4,8 km/h (1 Bft) 100 %
19.08.2019 03:17 16,6 C 92 % 1014,1 hPa 0,0 l/m 2,7 km/h (1 Bft) O 94 0 min 0 min 3 W/m 15,3 C 16,6 C 4,8 km/h (1 Bft) 100 %
19.08.2019 03:16 16,6 C 92 % 1014,1 hPa 0,0 l/m 4,0 km/h (1 Bft) O 93 0 min 0 min 3 W/m 15,3 C 16,6 C 4,8 km/h (1 Bft) 100 %
19.08.2019 03:15 16,6 C 92 % 1014,2 hPa 0,0 l/m 3,8 km/h (1 Bft) O 95 0 min 0 min 3 W/m 15,3 C 16,6 C 4,8 km/h (1 Bft) 100 %
19.08.2019 03:14 16,6 C 92 % 1014,3 hPa 0,0 l/m 1,8 km/h (1 Bft) O 96 0 min 0 min 3 W/m 15,3 C 16,6 C 3,2 km/h (1 Bft) 100 %
19.08.2019 03:13 16,6 C 92 % 1014,2 hPa 0,0 l/m 2,1 km/h (1 Bft) O 96 0 min 0 min 3 W/m 15,3 C 16,6 C 3,2 km/h (1 Bft) 100 %
19.08.2019 03:12 16,6 C 92 % 1014,2 hPa 0,0 l/m 3,7 km/h (1 Bft) O 96 0 min 0 min 3 W/m 15,3 C 16,6 C 4,8 km/h (1 Bft) 100 %
19.08.2019 03:11 16,6 C 93 % 1014,3 hPa 0,0 l/m 3,0 km/h (1 Bft) O-SO 103 0 min 0 min 3 W/m 15,5 C 16,6 C 4,8 km/h (1 Bft) 100 %
19.08.2019 03:10 16,6 C 93 % 1014,2 hPa 0,0 l/m 3,9 km/h (1 Bft) O-SO 103 0 min 0 min 3 W/m 15,5 C 16,6 C 4,8 km/h (1 Bft) 100 %
19.08.2019 03:09 16,6 C 93 % 1014,2 hPa 0,0 l/m 2,7 km/h (1 Bft) S 189 0 min 0 min 3 W/m 15,5 C 16,6 C 4,8 km/h (1 Bft) 100 %
19.08.2019 03:08 16,7 C 93 % 1014,3 hPa 0,0 l/m 1,2 km/h (1 Bft) S 191 0 min 0 min 3 W/m 15,6 C 16,7 C 1,6 km/h (1 Bft) 100 %
19.08.2019 03:07 16,6 C 93 % 1014,4 hPa 0,0 l/m 0,7 km/h (0 Bft) S 191 0 min 0 min 3 W/m 15,5 C 16,6 C 1,6 km/h (1 Bft) 96 %
19.08.2019 03:06 16,6 C 93 % 1014,4 hPa 0,0 l/m 2,1 km/h (1 Bft) S 191 0 min 0 min 3 W/m 15,5 C 16,6 C 3,2 km/h (1 Bft) 100 %
19.08.2019 03:05 16,6 C 93 % 1014,5 hPa 0,0 l/m 1,2 km/h (1 Bft) S 191 0 min 0 min 3 W/m 15,5 C 16,6 C 1,6 km/h (1 Bft) 100 %
19.08.2019 03:04 16,6 C 93 % 1014,5 hPa 0,0 l/m 1,8 km/h (1 Bft) S-SW 192 0 min 0 min 3 W/m 15,5 C 16,6 C 3,2 km/h (1 Bft) 100 %
19.08.2019 03:03 16,6 C 93 % 1014,5 hPa 0,0 l/m 0,5 km/h (0 Bft) S 191 0 min 0 min 3 W/m 15,5 C 16,6 C 3,2 km/h (1 Bft) 100 %
19.08.2019 03:02 16,6 C 92 % 1014,6 hPa 0,0 l/m 0,8 km/h (0 Bft) S-SW 192 0 min 0 min 3 W/m 15,3 C 16,6 C 1,6 km/h (1 Bft) 100 %
19.08.2019 03:01 16,6 C 92 % 1014,6 hPa 0,0 l/m 0,3 km/h (0 Bft) S 191 0 min 0 min 3 W/m 15,3 C 16,6 C 1,6 km/h (1 Bft) 100 %
19.08.2019 03:00 16,6 C 92 % 1014,7 hPa 0,0 l/m 1,7 km/h (1 Bft) S 191 0 min 0 min 3 W/m 15,3 C 16,6 C 3,2 km/h (1 Bft) 100 %
19.08.2019 02:59 16,6 C 92 % 1014,7 hPa 0,0 l/m 1,7 km/h (1 Bft) S 175 0 min 0 min 3 W/m 15,3 C 16,6 C 4,8 km/h (1 Bft) 100 %
19.08.2019 02:58 16,6 C 92 % 1014,6 hPa 0,0 l/m 1,2 km/h (1 Bft) S 189 0 min 0 min 3 W/m 15,3 C 16,6 C 3,2 km/h (1 Bft) 100 %
19.08.2019 02:57 16,6 C 92 % 1014,6 hPa 0,0 l/m 0,0 km/h (0 Bft) SW 216 0 min 0 min 3 W/m 15,3 C 16,6 C 0,0 km/h (0 Bft) 100 %
19.08.2019 02:56 16,6 C 92 % 1014,5 hPa 0,0 l/m 1,1 km/h (1 Bft) SW 216 0 min 0 min 3 W/m 15,3 C 16,6 C 3,2 km/h (1 Bft) 100 %
19.08.2019 02:55 16,7 C 93 % 1014,5 hPa 0,0 l/m 1,2 km/h (1 Bft) SW 216 0 min 0 min 3 W/m 15,6 C 16,7 C 1,6 km/h (1 Bft) 100 %
19.08.2019 02:54 16,6 C 92 % 1014,6 hPa 0,0 l/m 1,3 km/h (1 Bft) SW 216 0 min 0 min 3 W/m 15,3 C 16,6 C 3,2 km/h (1 Bft) 96 %
19.08.2019 02:53 16,7 C 92 % 1014,5 hPa 0,0 l/m 2,4 km/h (1 Bft) SW 216 0 min 0 min 3 W/m 15,4 C 16,7 C 4,8 km/h (1 Bft) 100 %
19.08.2019 02:52 16,7 C 92 % 1014,5 hPa 0,0 l/m 2,0 km/h (1 Bft) SW 215 0 min 0 min 3 W/m 15,4 C 16,7 C 3,2 km/h (1 Bft) 91 %
19.08.2019 02:51 16,7 C 92 % 1014,5 hPa 0,0 l/m 3,8 km/h (1 Bft) SW 215 0 min 0 min 3 W/m 15,4 C 16,7 C 6,4 km/h (2 Bft) 97 %
19.08.2019 02:50 16,7 C 92 % 1014,5 hPa 0,0 l/m 1,5 km/h (1 Bft) SW 216 0 min 0 min 3 W/m 15,4 C 16,7 C 4,8 km/h (1 Bft) 91 %
_ Min-Zeit 06:49 17:07 16:59 - 04:00 - - - - - 06:49 06:49 04:00 05:33
Minimum _ 14,1 C 38 % 1007,4 hPa - 0,0 km/h (0 Bft) - - - - - 12,8 C 14,1 C 0,0 km/h (0 Bft) 83 %
_ Max-Zeit 17:14 08:04 03:45 00:41 17:52 - - 06:30 23:50 13:28 00:05 17:21 00:39 04:02
Maximum _ 30,9 C 94 % 1014,9 hPa 3,3 l/m 16,8 km/h
N-NO (3 Bft)
- - 1 min 1 min 801 W/m 18,1 C 30,9 C 33,8 km/h
W (5 Bft)
100 %
Durchschnitt _ 21,6 C 72 % 1010,4 hPa #19,8 l/m 3,7 km/h (1 Bft) S - #0 min. #31 min. 3 W/m 15,7 C 21,5 C 6,1 km/h (2 Bft) 98 %